Regional Weather Roundup
Issued by NWS

Home | Current Version | Previous Version | Text Only | Print | Product List | Glossary On
Versions: 1 2 3 4 5 6 7 8 9 10 11 12 13 14 15 16 17 18 19 20 21 22 23 24 25 26 27 28 29 30 31 32 33 34 35 36 37 38 39 40 41 42 43 44 45 46 47 48 49 50
000
ASUS42 KTBW 272314
RWRFL
FLORIDA REGIONAL WEATHER ROUNDUP
NATIONAL WEATHER SERVICE TAMPA BAY RUSKIN FL
700 PM EDT MON MAR 27 2017

NOTE: "FAIR" INDICATES FEW OR NO CLOUDS BELOW 12,000 FEET WITH NO
SIGNIFICANT WEATHER AND/OR OBSTRUCTIONS TO VISIBILITY.

FLZ001>010-012>015-112-114-115-280000-
PANHANDLE FLORIDA

CITY           SKY/WX    TMP DP  RH WIND       PRES   REMARKS
PENSACOLA      PTSUNNY   74  65  73 S14       29.99S
PENSACOLA NAS  PTSUNNY   73  66  78 S9        29.98F
MILTON NAS     PTSUNNY   72  64  76 S18       29.98
CRESTVIEW      PTSUNNY   75  62  64 S12G17    30.00F
DUKE FIELD     PTSUNNY   72  63  72 S14       29.98F
VALPARAISO     PTSUNNY   73  66  79 S10       30.00F
MARY ESTHER    MOSUNNY   72  61  68 SE9       29.99S
PANAMA CITY    FAIR      74  60  61 S12       30.00S
TYNDALL AFB    SUNNY     73  63  69 S9        30.01S
APALACHICOLA   SUNNY     73  67  81 S8        30.02S

STATION/POSITION SKY/WX   TEMP    WIND        PRES    WAVE   SWELL
                          AIR SEA DIR/SP/G            HT/PER HT/PER
                          (F)     (DEG/KT/KT) (MB)    (FT/S) (FT/S)
30.1N   87.6W              70 71  160/  6/  6 1015.4F   3/ 5   2/ 5
29.2N   88.2W              73 74  160/ 12/ 14 1015.1F   3/ 5   2/ 6
28.8N   86.0W              73 72              1016.0F   2/ 4   2/ 5
PANAMA CITY BEAC           70 72  180/  7/  8 1016.5S
TOWER C                    69     160/  7/  7 1016.9F
28.5N   84.5W              71 71  160/  8/  8 1016.2F   1/ 5   2/ 5

$$
FLZ011-016>038-118-127-128-134-139-239-280000-
NORTH FLORIDA

CITY           SKY/WX    TMP DP  RH WIND       PRES   REMARKS
MARIANNA       PTSUNNY   81  59  47 SW14      29.96S
TALLAHASSEE    MOSUNNY   80  60  50 S9        29.98F
PERRY          SUNNY     76  61  60 SW9       30.02S
CROSS CITY     CLEAR     77  59  53 W12       30.00S
LAKE CITY      FAIR      79  59  50 CALM      29.99F
GAINESVILLE    PTCLDY    80  55  42 SE6       29.99S
WILLISTON      CLEAR     82  59  44 CALM      29.99S
PALATKA        FAIR      77  55  47 SE10G17   30.02S
MAYPORT NAS    CLOUDY    71  61  70 SE13      30.02F
JACKSONVILLE   CLOUDY    74  57  55 SE12      30.01S
JAX NAS        MOCLDY    76  58  53 E13       30.02S
FERNANDINA BEA FAIR      73  63  68 SE12      30.02S
ST AUGUSTINE   PTCLDY    72  61  68 SE10      30.03F
PALM COAST     CLEAR     73  59  60 E9        30.03F

STATION/POSITION SKY/WX   TEMP    WIND        PRES    WAVE   SWELL
                          AIR SEA DIR/SP/G            HT/PER HT/PER
                          (F)     (DEG/KT/KT) (MB)    (FT/S) (FT/S)
SHELL POINT      NOT AVBL
KEATON BEACH               70     210/  6/  7 1016.2F
CEDAR KEY                  73     270/  6/  8 1016.7F
FERNANDINA                 72 69  130/  7/ 12 1017.4F
30.7N   81.3W                 67                N/A     3/ 9   2/11
MAYPORT                    71 69  140/  5/ 12 1017.1F
31.4N   80.9W              66 65  150/  8/ 10 1016.7F   4/11   3/11
ST AUGUSTINE               69 72  130/  8/  9 1017.8F

$$
FLZ040-043>046-052-053-057-058-063-144-280000-
INTERIOR CENTRAL FLORIDA

CITY           SKY/WX    TMP DP  RH WIND       PRES   REMARKS
OCALA          PTCLDY    81  54  39 CALM      30.00F
THE VILLAGES     N/A     81  55  41 MISG      29.90F
LEESBURG       PTCLDY    81  55  40 E9        30.01S
SANFORD        MOCLDY    76  55  48 E12       30.02F
ORLANDO EXEC   MOCLDY    77  56  48 E14       30.02R
ORLANDO INTL   MOCLDY    77  56  48 E14       30.02R
KISSIMMEE      PTCLDY    77  60  55 E12       30.02S
WINTER HAVEN   PTCLDY    80  53  39 E8        30.01S
LAKELAND       PTCLDY    81  55  41 E7        30.00F
BARTOW         FAIR      79  54  41 E9        30.00S
OKEECHOBEE     PTCLDY   N/A N/A N/A E8        30.01S

$$
FLZ041-047-054-059-064-141-147-280000-
EAST CENTRAL FLORIDA

CITY           SKY/WX    TMP DP  RH WIND       PRES   REMARKS
ORMOND BEACH   PTCLDY    73  61  64 E9        30.04F
DAYTONA BEACH  MOCLDY    73  60  63 E10       30.03F
DELAND         MOCLDY    73  59  60 E12       30.02S
NEW SMYRNA BEA PTCLDY    73  63  68 E12       30.05F
JFK SPACE CTR  CLEAR     72  62  69 E8        30.02F
TITUSVILLE     PTCLDY    73  59  60 E12       30.04S
CAPE CANAVERAL CLEAR     75  62  64 NE6       30.02F
PATRICK AFB    PTCLDY    74  63  69 NE10      30.02S
MELBOURNE      PTCLDY    75  62  64 E12       30.02F
VERO BEACH     PTCLDY    74  63  68 NE10      30.02F
FT PIERCE      CLEAR     74  63  68 NE6       30.02S
STUART         PTCLDY    77  61  57 NE9       30.03S

STATION/POSITION SKY/WX   TEMP    WIND        PRES    WAVE   SWELL
                          AIR SEA DIR/SP/G            HT/PER HT/PER
                          (F)     (DEG/KT/KT) (MB)    (FT/S) (FT/S)
TRIDENT PIER               73 73   30/  7/ 10 1017.9F
28.4N   80.5W                 72                N/A     2/10   2/11
27.5N   80.2W                 75                N/A     3/11   2/11

$$
FLZ050-056-061-142-242-148-248-149-249-151-251-155-255-
160-260-280000-
WEST CENTRAL FLORIDA

CITY           SKY/WX    TMP DP  RH WIND       PRES   REMARKS
CRYSTAL RIVER  FAIR      75  55  50 NW3       30.01R
INVERNESS        N/A     81  55  41 E3        30.00S HAZE
BROOKSVILLE    PTCLDY    80  58  46 NW6       30.00F
CLEARWATER AIR FAIR      73  59  60 NW6       29.99S
ST PETE CLEARW CLOUDY    77  57  50 NW7       29.99F
TAMPA INTL     CLOUDY    80  60  50 NW7       29.99F
TAMPA EXEC     CLOUDY    84  52  32 E5        29.99F
PLANT CITY     PTCLDY    82  55  39 E6        30.01F
MACDILL AFB    CLOUDY    78  62  57 NW7       29.98F
PETER O KNIGHT CLOUDY    81  63  54 NW5       29.98F
ST PETERSBURG  MOCLDY    78  60  53 VRB3      29.96F
SARASOTA       CLEAR     75  58  55 NW9       29.98S
VENICE         FAIR      73  64  73 W8        30.00S

STATION/POSITION SKY/WX   TEMP    WIND        PRES    WAVE   SWELL
                          AIR SEA DIR/SP/G            HT/PER HT/PER
                          (F)     (DEG/KT/KT) (MB)    (FT/S) (FT/S)
27.3N   84.2W                 72                N/A     2/ 4
CLEARWATER BEACH           73 72  310/  4/  5 1015.9F
MIDDLE TAMPA BAY           73     290/  8/ 10 1015.7F
VENICE                     72 73  280/  8/  9 1015.3S

$$
FLZ066-069-070-075>078-162-262-165-265-280000-
SOUTHWEST FLORIDA AND KEYS

CITY           SKY/WX    TMP DP  RH WIND       PRES   REMARKS
PUNTA GORDA    CLEAR     82  52  35 NE7       29.99S
FT MYERS       CLEAR     82  60  47 W6        29.97R
SOUTHWEST INTL CLEAR     82  53  36 E10       29.97S
NAPLES         PTCLDY    76  60  57 W8        29.98F
IMMOKALEE      FAIR      79  59  50 E10       29.97F
MARATHON       CLEAR     78  65  63 E8        29.97S
KEY WEST NAS   PTCLDY    77  61  57 E12       29.98S
KEY WEST INTL  CLEAR     78  62  57 E10       29.98S

STATION/POSITION SKY/WX   TEMP    WIND        PRES    WAVE   SWELL
                          AIR SEA DIR/SP/G            HT/PER HT/PER
                          (F)     (DEG/KT/KT) (MB)    (FT/S) (FT/S)
NAPLES                        75              1015.3F
26.0N   85.6W              76 78  110/ 14/ 16 1015.6R   4/ 6
DRY TORTUGAS               74      70/ 10/ 11 1015.3F
SAND KEY                   76     100/ 14/ 17 1015.5F
LONG KEY                   76 77  100/ 14/ 15 1015.4F
MOLASSES REEF              75 78   90/ 13/ 14 1015.6F

$$
FLZ067-068-071>074-168-172>174-280000-
SOUTHEAST FLORIDA

CITY           SKY/WX    TMP DP  RH WIND       PRES   REMARKS
W PALM BEACH   PTCLDY    76  58  53 NE10      30.02S
BOCA RATON     CLEAR     75  57  53 E8G15     30.01F
FT LAUDER-EXEC PTCLDY    77  54  44 NE12      30.00S
FT LAUDERDALE  PTCLDY    75  57  53 E9        30.00S
POMPANO BEACH  CLEAR     76  57  51 E9        30.01S
PEMBROKE PINES CLEAR     76  58  53 NE13      30.02S
OPA LOCKA      CLEAR     75  56  51 NE12      30.01S
MIAMI          PTCLDY    76  58  53 NE10      30.00S
WEST KENDALL   CLEAR     77  57  50 E14       29.99F
HOMESTEAD      CLEAR     75  63  65 NE9       29.99S

STATION/POSITION SKY/WX   TEMP    WIND        PRES    WAVE   SWELL
                          AIR SEA DIR/SP/G            HT/PER HT/PER
                          (F)     (DEG/KT/KT) (MB)    (FT/S) (FT/S)
PORT EVERGLADES            75      60/  9/ 13 1016.0F
VIRGINIA KEY               76      60/  9/ 13 1016.2F
LAKE WORTH                         60/ 11/ 14   N/A
FOWEY ROCKS                75 76   50/ 14/ 15 1016.3F
SETTLEMENT POINT           72      40/ 10/ 12 1016.7F

$$




USA.gov is the U.S. government's official web portal to all federal, state and local government web resources and services.